TimeAKDT,TemperatureF,Dew PointF,Humidity,Sea Level PressureIn,VisibilityMPH,Wind Direction,Wind SpeedMPH,Gust SpeedMPH,PrecipitationIn,Events,Conditions,WindDirDegrees,DateUTC
12:53 AM,30.9,28.0,89,29.87,10.0,South,4.6,-,N/A,,Mostly Cloudy,180,2013-08-30 08:53:00
1:53 AM,28.9,27.0,92,29.89,10.0,South,4.6,-,N/A,,Mostly Cloudy,170,2013-08-30 09:53:00
2:53 AM,30.9,25.0,79,29.88,10.0,SSW,5.8,-,N/A,,Mostly Cloudy,200,2013-08-30 10:53:00
3:53 AM,30.9,25.0,79,29.87,10.0,SSW,3.5,-,N/A,,Mostly Cloudy,200,2013-08-30 11:53:00
4:53 AM,30.0,27.0,88,29.87,10.0,Calm,Calm,-,N/A,,Mostly Cloudy,0,2013-08-30 12:53:00
5:00 AM,30.2,26.6,86,29.86,10.0,Calm,Calm,-,N/A,,Mostly Cloudy,0,2013-08-30 13:00:00
5:53 AM,30.0,28.0,92,29.86,10.0,Calm,Calm,-,N/A,,Mostly Cloudy,0,2013-08-30 13:53:00
6:53 AM,28.0,27.0,96,29.86,10.0,Calm,Calm,-,N/A,,Scattered Clouds,0,2013-08-30 14:53:00
7:53 AM,28.9,27.0,92,29.86,3.0,SE,3.5,-,N/A,,Scattered Clouds,140,2013-08-30 15:53:00
8:53 AM,32.0,30.9,96,29.86,10.0,Calm,Calm,-,N/A,,Scattered Clouds,0,2013-08-30 16:53:00
9:53 AM,36.0,28.0,73,29.85,10.0,Calm,Calm,-,N/A,,Scattered Clouds,0,2013-08-30 17:53:00
10:53 AM,39.0,27.0,62,29.85,10.0,NNE,5.8,-,N/A,,Mostly Cloudy,20,2013-08-30 18:53:00
11:53 AM,39.9,25.0,55,29.86,10.0,North,5.8,-,N/A,,Mostly Cloudy,10,2013-08-30 19:53:00
12:53 PM,39.9,26.1,58,29.86,10.0,NE,3.5,-,N/A,,Mostly Cloudy,40,2013-08-30 20:53:00
1:53 PM,39.9,37.9,93,29.86,10.0,North,8.1,-,N/A,,Mostly Cloudy,350,2013-08-30 21:53:00
2:53 PM,39.9,39.0,97,29.86,10.0,North,8.1,-,N/A,,Mostly Cloudy,350,2013-08-30 22:53:00
3:53 PM,39.9,37.9,93,29.87,10.0,NNW,8.1,-,N/A,,Mostly Cloudy,330,2013-08-30 23:53:00
4:53 PM,39.0,37.9,96,29.88,10.0,NW,5.8,-,N/A,,Mostly Cloudy,320,2013-08-31 00:53:00
5:53 PM,39.0,37.9,96,29.89,10.0,WNW,10.4,-,N/A,,Mostly Cloudy,290,2013-08-31 01:53:00
6:53 PM,39.0,37.9,96,29.89,10.0,West,11.5,-,N/A,,Mostly Cloudy,270,2013-08-31 02:53:00
7:53 PM,39.0,37.9,96,29.89,10.0,West,12.7,-,N/A,,Mostly Cloudy,270,2013-08-31 03:53:00
8:53 PM,37.9,37.0,97,29.89,10.0,West,15.0,-,N/A,,Mostly Cloudy,260,2013-08-31 04:53:00
9:46 PM,37.4,37.4,100,29.88,10.0,West,16.1,-,N/A,,Mostly Cloudy,260,2013-08-31 05:46:00
9:53 PM,37.9,37.0,97,29.88,10.0,West,15.0,-,N/A,,Mostly Cloudy,260,2013-08-31 05:53:00
10:53 PM,37.0,36.0,96,29.88,10.0,West,18.4,-,N/A,,Mostly Cloudy,270,2013-08-31 06:53:00
11:53 PM,37.0,36.0,96,29.88,10.0,West,18.4,-,N/A,,Overcast,280,2013-08-31 07:53:00